Rp Zug — HE7351 — position and weather

sailwx.info

Track history (hours):
 
Tides and Currents Weather Stations Pressure Air Temp Water Temp Dewpoint Dewpoint Depression Visibility Wind Speed Wind Dir Waves Ship Positions

Rp Zug

Last reported at 2014-Oct-20 11:13 UTC. Time now 2014-Oct-23 04:38 UTC.
Position N 50°55' E 006°59'.

Type: Tanker. MMSI: 269057351.

Date/timePositionNaut miles runAvg speedWind from/ knotsBaromVisibWave heightAir tempDewpointWater temp
2014-Oct-20 11:13N 50°55' E 006°59'9 5.4
2014-Oct-20 09:34N 51°03' E 006°55'5 4.6
2014-Oct-20 08:33N 51°07' E 006°52'3 3.4
2014-Oct-20 07:33N 51°10' E 006°48'4 4.3
2014-Oct-20 06:33N 51°14' E 006°44'4 3.6
2014-Oct-20 05:33N 51°17' E 006°43'5 5.0
2014-Oct-20 04:33N 51°22' E 006°39'28 4.6
2014-Oct-19 22:26N 51°47' E 006°19'15 7.3
2014-Oct-19 20:19N 51°56' E 005°58'3 0.4
2014-Oct-19 12:23N 51°58' E 005°56'0 0.0
2014-Oct-19 11:30N 51°58' E 005°56'9 0.3
2014-Oct-18 03:28N 51°51' E 006°05'7 5.6
2014-Oct-18 02:16N 51°49' E 006°16'32 8.1
2014-Oct-17 22:22N 51°23' E 006°43'5 6.3
2014-Oct-17 21:33N 51°18' E 006°43'7 6.8
2014-Oct-17 20:33N 51°11' E 006°45'18 7.3
2014-Oct-17 18:06N 50°55' E 006°58'1 0.1
2014-Oct-17 07:23N 50°54' E 006°59'12 5.8
2014-Oct-17 05:20N 51°05' E 006°51'4 5.3
2014-Oct-17 04:33N 51°09' E 006°51'4 3.8
2014-Oct-17 03:33N 51°11' E 006°46'3 3.0
2014-Oct-17 02:33N 51°14' E 006°46'5 5.2
2014-Oct-17 01:33N 51°19' E 006°44'3 3.5
2014-Oct-17 00:33N 51°23' E 006°43'28 5.2
2014-Oct-16 19:10N 51°46' E 006°20'6 7.2
2014-Oct-16 18:17N 51°50' E 006°11'13 7.3
2014-Oct-16 16:33N 51°58' E 005°56'0 0.0
2014-Oct-16 06:33N 51°58' E 005°56'6 4.6
2014-Oct-16 05:18N 51°53' E 006°01'3 0.7
2014-Oct-16 01:24N 51°52' E 006°05'9 2.7
2014-Oct-15 22:15N 51°51' E 005°51'4 6.5
2014-Oct-15 21:33N 51°53' E 005°44'7 6.6
2014-Oct-15 20:33N 51°54' E 005°33'4 3.7
2014-Oct-15 19:33N 51°54' E 005°27'6 6.3
2014-Oct-15 18:33N 51°58' E 005°19'5 4.6
2014-Oct-15 17:33N 52°00' E 005°12'8 8.1
2014-Oct-15 16:33N 52°07' E 005°05'8 7.9
2014-Oct-15 15:33N 52°14' E 005°01'8 7.9
2014-Oct-15 14:34N 52°22' E 004°57'1 1.3
2014-Oct-15 13:34N 52°23' E 004°57'8 7.5
2014-Oct-15 12:34N 52°26' E 004°45'1 1.0
2014-Oct-15 11:33N 52°25' E 004°45'0 0.0
2014-Oct-15 10:33N 52°25' E 004°45'0 0.0
2014-Oct-15 09:33N 52°25' E 004°45'0 0.0
2014-Oct-15 08:33N 52°25' E 004°45'0 0.0
2014-Oct-15 07:33N 52°25' E 004°45'0 0.0
2014-Oct-15 06:33N 52°25' E 004°45'0 0.0
2014-Oct-15 05:33N 52°25' E 004°45'0 0.0
2014-Oct-15 04:33N 52°25' E 004°45'0 0.0
2014-Oct-15 03:33N 52°25' E 004°45'0 0.4
2014-Oct-15 02:33N 52°25' E 004°45'0 0.0
2014-Oct-15 01:33N 52°25' E 004°45'0 0.0
2014-Oct-15 00:33N 52°25' E 004°45'0 0.0
2014-Oct-14 23:33N 52°25' E 004°45'0 0.0
2014-Oct-14 22:33N 52°25' E 004°45'0 0.0
2014-Oct-14 21:33N 52°25' E 004°45'0 0.0
2014-Oct-14 20:33N 52°25' E 004°45'0 0.0
2014-Oct-14 19:33N 52°25' E 004°45'0 0.0
2014-Oct-14 18:33N 52°25' E 004°45'0 0.0
2014-Oct-14 17:33N 52°25' E 004°45'0 0.0
2014-Oct-14 16:33N 52°25' E 004°45'0 0.0
2014-Oct-14 15:33N 52°25' E 004°45'0 0.0
2014-Oct-14 14:33N 52°25' E 004°45'0 0.0
2014-Oct-14 13:33N 52°25' E 004°45'0 0.0
2014-Oct-14 12:33N 52°25' E 004°45'0 0.0
2014-Oct-14 11:33N 52°25' E 004°45'0 0.0
2014-Oct-14 10:33N 52°25' E 004°45'0 0.0
2014-Oct-14 09:33N 52°25' E 004°45'0 0.0
2014-Oct-14 08:33N 52°25' E 004°45'0 0.0
2014-Oct-14 07:33N 52°25' E 004°45'0 0.0
2014-Oct-14 06:33N 52°25' E 004°45'0 0.0
2014-Oct-14 05:33N 52°25' E 004°45'0 0.0
2014-Oct-14 04:33N 52°25' E 004°45'0 0.0
2014-Oct-14 03:33N 52°25' E 004°45'0 0.0
2014-Oct-14 02:33N 52°25' E 004°45'0 0.0
2014-Oct-14 01:33N 52°25' E 004°45'0 0.0
2014-Oct-14 00:33N 52°25' E 004°45'0 0.0
2014-Oct-13 23:33N 52°25' E 004°45'0 0.0
2014-Oct-13 22:33N 52°25' E 004°45'0 0.0
2014-Oct-13 21:33N 52°25' E 004°45'0 0.0
2014-Oct-13 20:33N 52°25' E 004°45'0 0.0
2014-Oct-13 19:33N 52°25' E 004°45'0 0.0
2014-Oct-13 18:33N 52°25' E 004°45'0 0.0
2014-Oct-13 17:33N 52°25' E 004°45'0 0.0
2014-Oct-13 16:33N 52°25' E 004°45'0 0.0
2014-Oct-13 15:33N 52°25' E 004°45'0 0.0
2014-Oct-13 14:33N 52°25' E 004°45'0 0.0
2014-Oct-13 13:33N 52°25' E 004°45'0 0.0
2014-Oct-13 12:33N 52°25' E 004°45'0 0.0
2014-Oct-13 11:33N 52°25' E 004°45'0 0.0
2014-Oct-13 10:33N 52°25' E 004°45'0 0.0
2014-Oct-13 09:33N 52°25' E 004°45'0 0.0
2014-Oct-13 08:33N 52°25' E 004°45'0 0.0
2014-Oct-13 07:33N 52°25' E 004°45'0 0.0
2014-Oct-13 06:33N 52°25' E 004°45'0 0.0
2014-Oct-13 05:33N 52°25' E 004°45'0 0.0
2014-Oct-13 04:33N 52°25' E 004°45'0 0.0
2014-Oct-13 03:33N 52°25' E 004°45'0 0.0
2014-Oct-13 02:33N 52°25' E 004°45'0 0.0
2014-Oct-13 01:33N 52°25' E 004°45'0 0.0
2014-Oct-13 00:33N 52°25' E 004°45'0 0.0
2014-Oct-12 23:33N 52°25' E 004°45'0 0.0
2014-Oct-12 22:33N 52°25' E 004°45'0 0.0
2014-Oct-12 21:33N 52°25' E 004°45'0 0.0
2014-Oct-12 20:33N 52°25' E 004°45'0 0.0
2014-Oct-12 19:33N 52°25' E 004°45'0 0.0
2014-Oct-12 18:33N 52°25' E 004°45'2 2.0
2014-Oct-12 17:33N 52°25' E 004°48'8 8.4
2014-Oct-12 16:34N 52°21' E 004°60'10 9.4
2014-Oct-12 15:32N 52°11' E 004°60'9 9.1
2014-Oct-12 14:33N 52°03' E 005°06'9 9.4
2014-Oct-12 13:34N 51°58' E 005°19'6 6.3
2014-Oct-12 12:34N 51°54' E 005°27'6 5.5
2014-Oct-12 11:34N 51°54' E 005°36'1210.7
2014-Oct-12 10:26N 51°52' E 005°55'4 3.0
2014-Oct-12 09:15N 51°56' E 005°58'3 4.2
2014-Oct-12 08:33N 51°58' E 005°56'0 0.1
2014-Oct-12 07:32N 51°58' E 005°56'0 0.0
2014-Oct-12 06:30N 51°58' E 005°56'0 0.0
2014-Oct-12 05:32N 51°58' E 005°56'0 0.0
2014-Oct-12 04:33N 51°58' E 005°56'0 0.0
2014-Oct-12 03:27N 51°58' E 005°56'0 0.0
2014-Oct-12 02:33N 51°58' E 005°56'0 0.0
2014-Oct-12 01:33N 51°58' E 005°56'0 0.1
2014-Oct-12 00:33N 51°58' E 005°56'6 5.8
2014-Oct-11 23:31N 51°53' E 006°02'7 7.5
2014-Oct-11 22:32N 51°50' E 006°12'47 7.4
2014-Oct-11 16:11N 51°10' E 006°51'124 7.4
2014-Oct-10 23:29N 49°23' E 008°30'7 7.8
2014-Oct-10 22:33N 49°16' E 008°27'9 9.4
2014-Oct-10 21:33N 49°07' E 008°22'3 3.2
2014-Oct-10 20:33N 49°04' E 008°20'0 0.0
2014-Oct-10 19:33N 49°04' E 008°20'0 0.0
2014-Oct-10 18:33N 49°04' E 008°20'0 0.0
2014-Oct-10 17:33N 49°04' E 008°20'0 0.0
2014-Oct-10 16:33N 49°04' E 008°20'0 0.0
2014-Oct-10 15:33N 49°04' E 008°20'0 0.0
2014-Oct-10 14:33N 49°04' E 008°20'0 0.0
2014-Oct-10 13:33N 49°04' E 008°20'0 0.0
2014-Oct-10 12:33N 49°04' E 008°20'0 0.3
2014-Oct-10 11:33N 49°04' E 008°20'  
Track history (hours):
 
Tides and Currents Weather Stations Pressure Air Temp Water Temp Dewpoint Dewpoint Depression Visibility Wind Speed Wind Dir Waves Ship Positions

Rp Zug

Last reported at 2014-Oct-20 11:13 UTC. Time now 2014-Oct-23 04:38 UTC.
Position N 50°55' E 006°59'.

Type: Tanker. MMSI: 269057351.

Date/timePositionNaut miles runAvg speedWind from/ knotsBaromVisibWave heightAir tempDewpointWater temp
2014-Oct-20 11:13N 50°55' E 006°59'9 5.4
2014-Oct-20 09:34N 51°03' E 006°55'5 4.6
2014-Oct-20 08:33N 51°07' E 006°52'3 3.4
2014-Oct-20 07:33N 51°10' E 006°48'4 4.3
2014-Oct-20 06:33N 51°14' E 006°44'4 3.6
2014-Oct-20 05:33N 51°17' E 006°43'5 5.0
2014-Oct-20 04:33N 51°22' E 006°39'28 4.6
2014-Oct-19 22:26N 51°47' E 006°19'15 7.3
2014-Oct-19 20:19N 51°56' E 005°58'3 0.4
2014-Oct-19 12:23N 51°58' E 005°56'0 0.0
2014-Oct-19 11:30N 51°58' E 005°56'9 0.3
2014-Oct-18 03:28N 51°51' E 006°05'7 5.6
2014-Oct-18 02:16N 51°49' E 006°16'32 8.1
2014-Oct-17 22:22N 51°23' E 006°43'5 6.3
2014-Oct-17 21:33N 51°18' E 006°43'7 6.8
2014-Oct-17 20:33N 51°11' E 006°45'18 7.3
2014-Oct-17 18:06N 50°55' E 006°58'1 0.1
2014-Oct-17 07:23N 50°54' E 006°59'12 5.8
2014-Oct-17 05:20N 51°05' E 006°51'4 5.3
2014-Oct-17 04:33N 51°09' E 006°51'4 3.8
2014-Oct-17 03:33N 51°11' E 006°46'3 3.0
2014-Oct-17 02:33N 51°14' E 006°46'5 5.2
2014-Oct-17 01:33N 51°19' E 006°44'3 3.5
2014-Oct-17 00:33N 51°23' E 006°43'28 5.2
2014-Oct-16 19:10N 51°46' E 006°20'6 7.2
2014-Oct-16 18:17N 51°50' E 006°11'13 7.3
2014-Oct-16 16:33N 51°58' E 005°56'0 0.0
2014-Oct-16 06:33N 51°58' E 005°56'6 4.6
2014-Oct-16 05:18N 51°53' E 006°01'3 0.7
2014-Oct-16 01:24N 51°52' E 006°05'9 2.7
2014-Oct-15 22:15N 51°51' E 005°51'4 6.5
2014-Oct-15 21:33N 51°53' E 005°44'7 6.6
2014-Oct-15 20:33N 51°54' E 005°33'4 3.7
2014-Oct-15 19:33N 51°54' E 005°27'6 6.3
2014-Oct-15 18:33N 51°58' E 005°19'5 4.6
2014-Oct-15 17:33N 52°00' E 005°12'8 8.1
2014-Oct-15 16:33N 52°07' E 005°05'8 7.9
2014-Oct-15 15:33N 52°14' E 005°01'8 7.9
2014-Oct-15 14:34N 52°22' E 004°57'1 1.3
2014-Oct-15 13:34N 52°23' E 004°57'8 7.5
2014-Oct-15 12:34N 52°26' E 004°45'1 1.0
2014-Oct-15 11:33N 52°25' E 004°45'0 0.0
2014-Oct-15 10:33N 52°25' E 004°45'0 0.0
2014-Oct-15 09:33N 52°25' E 004°45'0 0.0
2014-Oct-15 08:33N 52°25' E 004°45'0 0.0
2014-Oct-15 07:33N 52°25' E 004°45'0 0.0
2014-Oct-15 06:33N 52°25' E 004°45'0 0.0
2014-Oct-15 05:33N 52°25' E 004°45'0 0.0
2014-Oct-15 04:33N 52°25' E 004°45'0 0.0
2014-Oct-15 03:33N 52°25' E 004°45'0 0.4
2014-Oct-15 02:33N 52°25' E 004°45'0 0.0
2014-Oct-15 01:33N 52°25' E 004°45'0 0.0
2014-Oct-15 00:33N 52°25' E 004°45'0 0.0
2014-Oct-14 23:33N 52°25' E 004°45'0 0.0
2014-Oct-14 22:33N 52°25' E 004°45'0 0.0
2014-Oct-14 21:33N 52°25' E 004°45'0 0.0
2014-Oct-14 20:33N 52°25' E 004°45'0 0.0
2014-Oct-14 19:33N 52°25' E 004°45'0 0.0
2014-Oct-14 18:33N 52°25' E 004°45'0 0.0
2014-Oct-14 17:33N 52°25' E 004°45'0 0.0
2014-Oct-14 16:33N 52°25' E 004°45'0 0.0
2014-Oct-14 15:33N 52°25' E 004°45'0 0.0
2014-Oct-14 14:33N 52°25' E 004°45'0 0.0
2014-Oct-14 13:33N 52°25' E 004°45'0 0.0
2014-Oct-14 12:33N 52°25' E 004°45'0 0.0
2014-Oct-14 11:33N 52°25' E 004°45'0 0.0
2014-Oct-14 10:33N 52°25' E 004°45'0 0.0
2014-Oct-14 09:33N 52°25' E 004°45'0 0.0
2014-Oct-14 08:33N 52°25' E 004°45'0 0.0
2014-Oct-14 07:33N 52°25' E 004°45'0 0.0
2014-Oct-14 06:33N 52°25' E 004°45'0 0.0
2014-Oct-14 05:33N 52°25' E 004°45'0 0.0
2014-Oct-14 04:33N 52°25' E 004°45'0 0.0
2014-Oct-14 03:33N 52°25' E 004°45'0 0.0
2014-Oct-14 02:33N 52°25' E 004°45'0 0.0
2014-Oct-14 01:33N 52°25' E 004°45'0 0.0
2014-Oct-14 00:33N 52°25' E 004°45'0 0.0
2014-Oct-13 23:33N 52°25' E 004°45'0 0.0
2014-Oct-13 22:33N 52°25' E 004°45'0 0.0
2014-Oct-13 21:33N 52°25' E 004°45'0 0.0
2014-Oct-13 20:33N 52°25' E 004°45'0 0.0
2014-Oct-13 19:33N 52°25' E 004°45'0 0.0
2014-Oct-13 18:33N 52°25' E 004°45'0 0.0
2014-Oct-13 17:33N 52°25' E 004°45'0 0.0
2014-Oct-13 16:33N 52°25' E 004°45'0 0.0
2014-Oct-13 15:33N 52°25' E 004°45'0 0.0
2014-Oct-13 14:33N 52°25' E 004°45'0 0.0
2014-Oct-13 13:33N 52°25' E 004°45'0 0.0
2014-Oct-13 12:33N 52°25' E 004°45'0 0.0
2014-Oct-13 11:33N 52°25' E 004°45'0 0.0
2014-Oct-13 10:33N 52°25' E 004°45'0 0.0
2014-Oct-13 09:33N 52°25' E 004°45'0 0.0
2014-Oct-13 08:33N 52°25' E 004°45'0 0.0
2014-Oct-13 07:33N 52°25' E 004°45'0 0.0
2014-Oct-13 06:33N 52°25' E 004°45'0 0.0
2014-Oct-13 05:33N 52°25' E 004°45'0 0.0
2014-Oct-13 04:33N 52°25' E 004°45'0 0.0
2014-Oct-13 03:33N 52°25' E 004°45'0 0.0
2014-Oct-13 02:33N 52°25' E 004°45'0 0.0
2014-Oct-13 01:33N 52°25' E 004°45'0 0.0
2014-Oct-13 00:33N 52°25' E 004°45'0 0.0
2014-Oct-12 23:33N 52°25' E 004°45'0 0.0
2014-Oct-12 22:33N 52°25' E 004°45'0 0.0
2014-Oct-12 21:33N 52°25' E 004°45'0 0.0
2014-Oct-12 20:33N 52°25' E 004°45'0 0.0
2014-Oct-12 19:33N 52°25' E 004°45'0 0.0
2014-Oct-12 18:33N 52°25' E 004°45'2 2.0
2014-Oct-12 17:33N 52°25' E 004°48'8 8.4
2014-Oct-12 16:34N 52°21' E 004°60'10 9.4
2014-Oct-12 15:32N 52°11' E 004°60'9 9.1
2014-Oct-12 14:33N 52°03' E 005°06'9 9.4
2014-Oct-12 13:34N 51°58' E 005°19'6 6.3
2014-Oct-12 12:34N 51°54' E 005°27'6 5.5
2014-Oct-12 11:34N 51°54' E 005°36'1210.7
2014-Oct-12 10:26N 51°52' E 005°55'4 3.0
2014-Oct-12 09:15N 51°56' E 005°58'3 4.2
2014-Oct-12 08:33N 51°58' E 005°56'0 0.1
2014-Oct-12 07:32N 51°58' E 005°56'0 0.0
2014-Oct-12 06:30N 51°58' E 005°56'0 0.0
2014-Oct-12 05:32N 51°58' E 005°56'0 0.0
2014-Oct-12 04:33N 51°58' E 005°56'0 0.0
2014-Oct-12 03:27N 51°58' E 005°56'0 0.0
2014-Oct-12 02:33N 51°58' E 005°56'0 0.0
2014-Oct-12 01:33N 51°58' E 005°56'0 0.1
2014-Oct-12 00:33N 51°58' E 005°56'6 5.8
2014-Oct-11 23:31N 51°53' E 006°02'7 7.5
2014-Oct-11 22:32N 51°50' E 006°12'47 7.4
2014-Oct-11 16:11N 51°10' E 006°51'124 7.4
2014-Oct-10 23:29N 49°23' E 008°30'7 7.8
2014-Oct-10 22:33N 49°16' E 008°27'9 9.4
2014-Oct-10 21:33N 49°07' E 008°22'3 3.2
2014-Oct-10 20:33N 49°04' E 008°20'0 0.0
2014-Oct-10 19:33N 49°04' E 008°20'0 0.0
2014-Oct-10 18:33N 49°04' E 008°20'0 0.0
2014-Oct-10 17:33N 49°04' E 008°20'0 0.0
2014-Oct-10 16:33N 49°04' E 008°20'0 0.0
2014-Oct-10 15:33N 49°04' E 008°20'0 0.0
2014-Oct-10 14:33N 49°04' E 008°20'0 0.0
2014-Oct-10 13:33N 49°04' E 008°20'0 0.0
2014-Oct-10 12:33N 49°04' E 008°20'0 0.3
2014-Oct-10 11:33N 49°04' E 008°20'  

Dump ship's entire track history